Stations météo

Publicité
Montauban, France (7540): Température de l'air & dewpoint: 14.08.2017 19:00:00 - 20.08.2017 19:00:00 (CEST)Montauban, France (7540): Température de l'air 5cm: 14.08.2017 19:00:00 - 20.08.2017 19:00:00 (CEST)Montauban, France (7540): Température de l'air -20cm & Température de l'air -100cm: 14.08.2017 19:00:00 - 20.08.2017 19:00:00 (CEST)Montauban, France (7540): Vitesse du vent & gusts: 14.08.2017 19:00:00 - 20.08.2017 19:00:00 (CEST)Montauban, France (7540): Direction du vent: 14.08.2017 19:00:00 - 20.08.2017 19:00:00 (CEST)Montauban, France (7540): reduced air pressure: 14.08.2017 19:00:00 - 20.08.2017 19:00:00 (CEST)Montauban, France (7540): visibility: 14.08.2017 19:00:00 - 20.08.2017 19:00:00 (CEST)Montauban, France (7540): Ensoleillement: 14.08.2017 19:00:00 - 20.08.2017 19:00:00 (CEST)Montauban, France (7540): Quantités de précipitations: 14.08.2017 19:00:00 - 20.08.2017 19:00:00 (CEST)
Date & Time tt [°C] td [°C] tt 5cm [°C] tt -20cm [°C] tt -100cm [°C] ff [km/h] ff [knt] fx [km/h] fx [knt] dd ppp [hPa] vv [km] sd [min] rr [mm]
20.08.2017 19:00:00 26,6 6,1 29,4 22,2 21,3 10 6 27 15 NNW 1022,9 20 60 0,0
20.08.2017 18:00:00 26,5 4,9 31,5 22,1 21,3 10 6 27 14 N 1023,3 20 60 0,0
20.08.2017 17:00:00 26,1 5,6 31,9 21,9 21,3 12 7 23 12 N 1023,6 20 60 0,0
20.08.2017 16:00:00 25,4 5,0 32,3 21,6 21,3 13 7 25 14 N 1023,9 20 60 0,0
20.08.2017 15:00:00 25,0 5,7 31,4 21,5 21,3 11 6 22 12 N 1024,3 20 60 0,0
20.08.2017 14:00:00 23,9 5,7 30,0 21,4 21,3 11 6 24 13 NNW 1024,9 20 60 0,0
20.08.2017 13:00:00 22,6 6,8 28,5 21,3 21,3 10 6 23 12 NNW 1025,5 20 60 0,0
20.08.2017 12:00:00 21,5 8,7 25,9 21,3 21,3 6 4 19 11 ENE 1026,1 20 60 0,0
20.08.2017 11:00:00 19,2 8,5 22,7 21,4 21,3 7 4 13 7 NNW 1026,5 20 60 0,0
20.08.2017 10:00:00 16,0 9,0 15,2 21,5 21,3 3 1 9 5 W 1026,4 20 50 0,0
20.08.2017 09:00:00 13,3 9,0 12,6 21,6 21,3 6 3 10 5 NW 1026,3 20 32 0,0
20.08.2017 08:00:00 12,1 8,8 7,6 21,8 21,3 5 3 8 5 WNW 1025,9 20 23 0,0
20.08.2017 07:00:00 10,9 7,8 7,8 22,0 21,3 3 1 7 4 W 1025,3 20 0 0,0
20.08.2017 06:00:00 11,5 8,0 8,1 22,2 21,3 3 2 6 3 WNW 1025,0 20 0 0,0
20.08.2017 05:00:00 11,5 8,2 8,2 22,3 21,3 0 0 4 2 N 1024,7 20 0 0,0
20.08.2017 04:00:00 12,1 8,6 8,4 22,4 21,3 2 1 5 3 WSW 1024,6 20 0 0,0
20.08.2017 03:00:00 12,1 8,4 8,9 22,5 21,3 0 0 4 2 N 1024,8 20 0 0,0
20.08.2017 02:00:00 13,1 8,0 9,4 22,7 21,3 0 0 7 4 N 1024,9 20 0 0,0
20.08.2017 01:00:00 14,4 7,7 10,9 22,9 21,3 0 0 9 5 N 1024,8 20 0 0,0
20.08.2017 00:00:00 16,9 7,8 13,4 22,9 21,3 5 3 11 6 NW 1024,7 20 0 0,0
19.08.2017 23:00:00 18,1 7,5 15,2 23,0 21,3 7 4 11 6 NNW 1024,2 20 0 0,0
19.08.2017 22:00:00 19,3 7,1 16,7 23,0 21,3 7 4 15 8 NW 1023,7 20 0 0,0
19.08.2017 21:00:00 21,3 6,4 18,9 23,0 21,3 8 5 22 12 NW 1023,0 20 30 0,0
19.08.2017 20:00:00 23,2 6,5 23,8 23,0 21,3 15 8 24 13 NW 1022,5 20 60 0,0
19.08.2017 19:00:00 24,1 6,4 25,8 22,9 21,3 15 8 28 15 NW 1022,1 20 60 0,0
19.08.2017 18:00:00 24,3 5,6 28,0 22,8 21,3 16 8 29 16 NW 1022,3 20 60 0,0
19.08.2017 17:00:00 24,8 7,4 29,0 22,6 21,3 15 8 25 14 NW 1022,3 18 60 0,0
19.08.2017 16:00:00 23,8 7,4 27,7 22,5 21,3 13 7 28 15 NW 1022,6 20 58 0,0
19.08.2017 15:00:00 23,0 7,5 28,8 22,4 21,3 13 7 27 14 NNW 1023,0 20 60 0,0
19.08.2017 14:00:00 22,2 10,0 26,9 22,3 21,3 14 8 26 14 NNW 1023,2 20 56 0,0
19.08.2017 13:00:00 21,4 10,5 25,0 22,3 21,3 10 6 24 13 NNW 1023,4 20 49 0,0
19.08.2017 12:00:00 20,9 11,0 25,0 22,3 21,3 13 7 26 14 N 1023,7 20 52 0,0
19.08.2017 11:00:00 20,2 11,4 22,9 22,3 21,3 10 6 19 10 N 1023,7 20 56 0,0
19.08.2017 10:00:00 18,6 13,2 19,2 22,4 21,3 9 5 18 10 N 1023,7 20 52 0,0
19.08.2017 09:00:00 17,1 14,0 16,5 22,5 21,3 9 5 14 8 NNW 1023,6 20 43 0,0
19.08.2017 08:00:00 16,0 14,0 14,3 22,7 21,3 6 3 9 5 NW 1023,2 20 26 0,0
19.08.2017 07:00:00 16,2 14,2 14,4 22,7 21,3 4 2 7 4 WNW 1022,5 20 0 0,0
19.08.2017 06:00:00 16,5 14,3 14,7 22,9 21,3 4 2 12 7 WNW 1022,1 20 0 0,0
19.08.2017 05:00:00 17,2 14,7 16,3 23,0 21,3 8 4 11 6 NW 1022,2 20 0 0,0
19.08.2017 04:00:00 17,5 15,1 15,4 23,0 21,3 8 4 12 6 WNW 1022,2 20 0 0,0
19.08.2017 03:00:00 17,7 15,1 16,2 23,1 21,3 5 3 13 7 NW 1021,9 20 0 0,0
19.08.2017 02:00:00 18,6 15,7 17,1 23,2 21,3 7 4 10 6 NW 1022,0 20 0 0,0
19.08.2017 01:00:00 19,0 16,2 17,8 23,3 21,3 6 3 12 6 NW 1022,0 20 0 0,0
19.08.2017 00:00:00 20,0 16,4 18,9 23,3 21,3 6 4 13 7 WNW 1021,6 20 0 0,0
18.08.2017 23:00:00 20,4 16,0 19,9 23,4 21,2 8 4 15 8 WNW 1021,6 20 0 0,0
18.08.2017 22:00:00 20,9 15,2 19,9 23,5 21,3 10 5 15 8 WNW 1021,2 20 0 0,0
18.08.2017 21:00:00 21,5 14,9 20,9 23,5 21,3 6 3 16 9 WNW 1020,9 20 0 0,0
18.08.2017 20:00:00 21,3 15,2 21,2 23,4 21,3 11 6 32 17 N 1020,9 20 0 0,0
18.08.2017 19:00:00 24,3 16,3 24,1 23,4 21,2 13 7 26 14 NW 1019,9 20 0 0,0
18.08.2017 18:00:00 25,1 16,0 25,4 23,3 21,3 14 8 26 14 NNW 1019,3 20 0 0,0
18.08.2017 17:00:00 25,1 16,3 26,3 23,2 21,2 19 10 33 18 NW 1019,1 20 1 0,0
18.08.2017 16:00:00 26,0 16,8 27,7 23,1 21,2 18 10 32 17 NW 1019,0 18 0 0,0
18.08.2017 15:00:00 27,1 16,7 29,9 23,0 21,3 16 9 36 19 NNW 1018,7 20 38 0,0
18.08.2017 14:00:00 26,5 16,7 28,7 22,9 21,2 21 12 40 22 NNW 1018,2 20 26 0,0
18.08.2017 13:00:00 27,6 18,0 29,2 22,8 21,2 24 13 39 21 NW 1017,7 20 53 0,0
18.08.2017 12:00:00 26,0 17,4 28,8 22,8 21,2 13 7 20 11 WNW 1017,3 20 60 0,0
18.08.2017 11:00:00 24,0 17,3 25,9 22,8 21,2 10 5 19 11 W 1017,8 20 60 0,0
18.08.2017 10:00:00 21,6 16,3 23,6 22,9 21,2 11 6 16 9 W 1017,9 20 51 0,0
18.08.2017 09:00:00 20,2 15,4 19,1 23,0 21,2 3 2 6 4 WSW 1017,6 20 47 0,0
18.08.2017 08:00:00 18,3 15,4 16,3 23,1 21,2 0 0 4 2 N 1017,7 20 0 0,0
18.08.2017 07:00:00 17,3 14,8 15,6 23,2 21,2 0 0 3 2 N 1017,5 15 0 0,0
18.08.2017 06:00:00 17,8 14,9 16,0 23,3 21,2 2 1 8 5 W 1017,3 20 0 0,0
18.08.2017 05:00:00 18,2 15,4 14,7 23,5 21,2 3 2 8 4 WNW 1017,7 20 0 0,0
18.08.2017 04:00:00 17,6 15,2 15,9 23,6 21,2 5 3 9 5 SW 1017,3 20 0 0,0
18.08.2017 03:00:00 18,8 15,5 17,3 23,7 21,2 5 3 12 6 E 1017,0 20 0 0,0
18.08.2017 02:00:00 19,0 15,9 17,1 23,8 21,2 5 3 9 5 E 1017,7 20 0 0,0
18.08.2017 01:00:00 20,0 16,2 17,7 23,9 21,2 6 3 10 5 ENE 1018,0 20 0 0,0
18.08.2017 00:00:00 21,3 16,0 17,6 23,9 21,2 4 2 7 4 ENE 1018,2 20 0 0,0
17.08.2017 23:00:00 22,0 15,4 18,6 24,0 21,2 3 2 5 3 SE 1018,3 20 0 0,0
17.08.2017 22:00:00 24,2 15,7 19,7 23,9 21,2 0 0 7 4 N 1018,6 20 0 0,0
17.08.2017 21:00:00 27,8 14,8 24,1 23,9 21,2 4 2 8 4 NW 1018,3 20 33 0,0
17.08.2017 20:00:00 30,3 14,4 31,1 23,7 21,2 4 2 16 9 N 1018,2 20 54 0,0
17.08.2017 19:00:00 30,3 14,4 33,0 23,5 21,2 11 6 22 12 WNW 1018,4 20 60 0,0
17.08.2017 18:00:00 30,6 13,8 34,7 23,3 21,2 5 3 19 11 WNW 1018,6 20 60 0,0
17.08.2017 17:00:00 29,9 14,8 35,7 23,1 21,2 11 6 22 12 NW 1018,9 20 60 0,0
17.08.2017 16:00:00 29,3 16,1 34,4 22,8 21,2 11 6 24 13 WNW 1019,5 20 60 0,0
17.08.2017 15:00:00 28,5 15,4 33,7 22,6 21,2 9 5 20 11 NW 1020,1 20 60 0,0
17.08.2017 14:00:00 27,0 16,3 - - - 9 5 31 17 WNW 1020,6 19 - -
17.08.2017 13:00:00 26,1 16,1 28,2 22,4 21,2 6 4 19 10 N 1021,1 20 47 0,0
17.08.2017 12:00:00 25,0 15,9 29,1 22,4 21,2 7 4 18 10 N 1021,5 18 51 0,0
17.08.2017 11:00:00 24,1 15,6 27,1 22,4 21,2 4 2 11 6 N 1021,8 20 60 0,0
17.08.2017 10:00:00 21,0 16,0 23,0 22,5 21,2 3 2 8 4 W 1021,9 20 60 0,0
17.08.2017 09:00:00 18,7 16,1 20,8 22,6 21,1 6 3 9 5 WNW 1021,8 20 60 0,0
17.08.2017 08:00:00 16,7 15,2 13,0 22,7 21,2 0 0 2 1 N 1021,4 20 32 0,0
17.08.2017 07:00:00 15,6 14,3 13,2 22,9 21,2 0 0 4 2 N 1021,4 20 0 0,0
17.08.2017 06:00:00 15,8 14,2 13,5 23,0 21,2 0 0 4 2 N 1021,1 20 0 0,0
17.08.2017 05:00:00 16,8 14,8 13,9 23,1 21,2 0 0 5 3 N 1021,1 20 0 0,0
17.08.2017 04:00:00 17,2 15,2 14,6 23,2 21,1 2 1 4 2 WSW 1021,4 20 0 0,0
17.08.2017 03:00:00 18,0 15,6 15,6 23,3 21,1 2 1 4 2 SSW 1021,2 20 0 0,0
17.08.2017 02:00:00 19,7 15,8 16,6 23,4 21,2 4 2 5 3 NW 1021,6 20 0 0,0
17.08.2017 01:00:00 20,6 16,0 17,2 23,5 21,2 4 2 9 5 NW 1021,9 20 0 0,0
17.08.2017 00:00:00 21,3 16,3 17,7 23,5 21,1 5 3 8 5 NW 1021,9 20 0 0,0
16.08.2017 23:00:00 22,5 16,1 20,7 23,6 21,1 5 3 12 7 NNW 1021,7 20 0 0,0
16.08.2017 22:00:00 23,3 16,6 21,7 23,6 21,1 5 3 18 10 NNW 1021,8 20 0 0,0
16.08.2017 21:00:00 24,6 17,1 23,5 23,6 21,2 8 5 18 10 WNW 1021,1 20 0 0,0
16.08.2017 20:00:00 25,5 16,9 25,0 23,5 21,2 11 6 19 10 WNW 1020,9 20 1 0,0
16.08.2017 19:00:00 25,7 16,8 26,4 23,3 21,1 15 8 26 14 WNW 1020,5 20 0 0,0
16.08.2017 18:00:00 26,4 17,2 27,2 23,2 21,1 16 9 29 16 NW 1020,5 20 19 0,0
16.08.2017 17:00:00 27,3 16,9 - - - 13 7 26 14 WNW 1020,0 20 - -
16.08.2017 16:00:00 27,3 18,0 29,5 22,9 21,1 13 7 24 13 WNW 1020,1 20 53 0,0
16.08.2017 15:00:00 26,5 17,8 28,1 22,7 21,1 9 5 20 11 NNW 1020,5 20 22 0,0
16.08.2017 14:00:00 25,6 17,5 28,1 22,6 21,1 10 5 19 10 N 1020,8 20 30 0,0
16.08.2017 13:00:00 25,1 18,8 27,8 22,5 21,1 8 5 17 9 NW 1021,0 20 48 0,0
16.08.2017 12:00:00 23,4 18,5 24,7 22,5 21,1 6 3 12 7 NW 1021,1 20 19 0,0
16.08.2017 11:00:00 21,7 18,5 22,5 22,6 21,1 6 3 10 5 WNW 1021,2 20 0 0,0
16.08.2017 10:00:00 20,9 18,3 20,8 22,6 21,1 6 3 9 5 NW 1020,9 19 0 0,0
16.08.2017 09:00:00 20,3 17,9 20,0 22,6 21,1 5 3 11 6 NW 1021,0 20 0 0,0
16.08.2017 08:00:00 20,1 17,7 19,5 22,7 21,1 4 2 7 4 N 1020,7 19 0 0,0
16.08.2017 07:00:00 19,9 17,7 19,6 22,7 21,1 3 2 10 6 NNE 1020,3 19 0 0,0
16.08.2017 06:00:00 20,0 17,6 19,5 22,8 21,1 6 3 9 5 NNE 1020,2 20 0 0,0
16.08.2017 05:00:00 20,3 17,7 19,0 22,9 21,1 4 2 8 5 N 1020,0 20 0 0,0
16.08.2017 04:00:00 20,6 17,8 19,5 22,9 21,1 4 2 10 5 N 1020,2 20 0 0,0
16.08.2017 03:00:00 20,9 18,7 17,9 23,0 21,1 4 2 6 4 N 1020,4 20 0 0,0
16.08.2017 02:00:00 20,4 18,7 17,3 23,0 21,1 0 0 7 4 N 1020,7 19 0 0,0
16.08.2017 01:00:00 21,6 19,2 20,4 23,0 21,1 4 2 13 7 NW 1021,0 20 0 0,0
16.08.2017 00:00:00 22,3 19,5 21,7 23,1 21,1 9 5 16 8 WNW 1021,1 20 0 0,0
15.08.2017 23:00:00 22,9 19,5 21,5 23,1 21,1 5 3 7 4 W 1020,6 20 0 0,0
15.08.2017 22:00:00 23,2 19,8 21,5 23,0 21,1 0 0 4 2 N 1020,1 20 0 0,0
15.08.2017 21:00:00 24,2 19,5 22,9 23,0 21,1 2 1 8 5 N 1019,5 20 0 0,0
15.08.2017 20:00:00 24,6 19,4 24,2 23,0 21,1 5 3 12 7 N 1018,8 20 0 0,0
15.08.2017 19:00:00 24,8 19,4 25,2 22,9 21,0 8 4 18 10 N 1018,7 20 9 0,0
15.08.2017 18:00:00 24,5 20,6 23,1 22,9 21,0 10 5 21 11 NW 1019,0 20 13 0,0
15.08.2017 17:00:00 23,1 20,8 21,9 22,9 21,0 14 7 27 15 NW 1019,1 16 0 0,2
15.08.2017 16:00:00 22,2 20,3 21,7 22,9 21,0 29 15 47 26 WNW 1018,8 16 0 0,2
15.08.2017 15:00:00 22,4 20,3 21,5 22,8 21,0 11 6 23 12 SSE 1018,7 14 0 0,2
15.08.2017 14:00:00 22,7 19,7 21,3 22,7 21,0 9 5 25 13 NNE 1018,1 18 0 0,4
15.08.2017 13:00:00 24,5 19,1 25,3 22,6 21,0 10 5 34 18 NW 1019,1 20 0 0,0
15.08.2017 12:00:00 26,1 18,5 28,5 22,6 21,0 13 7 23 12 W 1018,7 20 52 0,0
15.08.2017 11:00:00 24,8 18,0 27,1 22,6 21,0 9 5 19 11 S 1017,8 20 60 0,0
15.08.2017 10:00:00 23,0 17,0 20,7 22,7 21,0 14 7 23 13 SSE 1017,8 20 47 0,0
15.08.2017 09:00:00 20,5 16,5 19,2 22,8 21,0 13 7 22 12 SSE 1017,6 20 2 0,0
15.08.2017 08:00:00 19,8 17,0 18,0 22,8 21,0 8 4 18 10 ESE 1017,9 20 29 0,0
15.08.2017 07:00:00 20,1 17,9 18,9 22,9 21,0 8 4 18 10 E 1017,6 20 0 0,0
15.08.2017 06:00:00 20,5 18,1 19,3 23,0 21,0 12 6 27 15 ESE 1017,5 20 0 0,2
15.08.2017 05:00:00 21,0 18,2 19,5 23,1 21,0 16 9 27 15 S 1018,3 16 0 0,8
15.08.2017 04:00:00 21,8 18,2 19,2 23,1 21,0 8 4 24 13 SSW 1018,1 20 0 0,0
15.08.2017 03:00:00 21,0 17,6 19,2 23,2 21,0 11 6 16 9 SE 1017,5 20 0 0,4
15.08.2017 02:00:00 23,2 16,3 18,9 23,3 21,0 12 6 46 25 WNW 1018,4 20 0 0,0
15.08.2017 01:00:00 22,0 13,6 17,7 23,3 21,0 8 4 16 8 S 1015,7 20 0 0,0
15.08.2017 00:00:00 23,1 13,6 19,8 23,4 21,0 10 6 21 11 S 1015,6 20 0 0,0
14.08.2017 23:00:00 24,0 14,1 20,9 23,4 21,0 11 6 19 10 SSE 1015,0 20 0 0,0
14.08.2017 22:00:00 25,3 14,7 22,5 23,4 21,1 10 5 19 10 SSE 1015,0 20 0 0,0
14.08.2017 21:00:00 27,2 15,2 24,7 23,3 21,0 14 7 23 13 SE 1014,2 20 34 0,0
14.08.2017 20:00:00 29,3 15,8 29,0 23,2 21,0 13 7 29 16 SE 1013,4 20 60 0,0
14.08.2017 19:00:00 31,6 16,4 34,4 23,0 21,0 13 7 30 16 SE 1013,0 20 60 0,0

tt = Température de l'air
td = dewpoint
tt 5cm = Température de l'air 5cm
tt -20cm = Température de l'air -20cm
tt -100cm = Température de l'air -100cm
ff = Vitesse du vent
fx = gusts
dd = Direction du vent
ppp = reduced air pressure
vv = visibility
sd = Ensoleillement
rr = Quantités de précipitations

stations d'obs. à proximité